Location: Linz
(48.3300°N, 14.3000°E)
Time: 03:02:06
(UTC+02:00)

YUBILEINY - Visible Passes

Search period start: 25 September 2018 00:00
Search period end: 05 October 2018 00:00
Orbit: 1479 x 1508 km, 82.5° (Epoch: 23 September)

Date Brightness Start Highest point End Pass type
(mag) Time Alt. Az. Time Alt. Az. Time Alt. Az.
25 Sep ? 00:17:54 10° W 00:23:46 19° NW 00:29:43 10° N visible
25 Sep ? 19:35:49 10° ESE 19:40:30 16° ENE 19:45:11 10° NE visible
25 Sep ? 21:30:13 26° S 21:35:35 70° E 21:44:17 10° NNE visible
25 Sep ? 23:26:01 11° WSW 23:33:11 32° WNW 23:40:49 10° N visible
26 Sep ? 05:38:46 10° NNE 05:40:56 11° NE 05:43:07 10° NE visible
26 Sep ? 20:39:36 15° SSE 20:46:22 42° E 20:54:23 10° NNE visible
26 Sep ? 22:35:21 13° SW 22:43:01 52° WNW 22:51:33 10° N visible
27 Sep ? 00:38:33 10° WNW 00:42:27 13° NW 00:46:22 10° NNW visible
27 Sep ? 19:50:58 10° SE 19:57:29 24° ENE 20:04:01 10° NNE visible
27 Sep ? 21:44:29 10° S 21:53:13 84° W 22:02:03 10° N visible
27 Sep ? 23:45:03 10° WSW 23:51:31 22° NW 23:58:04 10° N visible
28 Sep ? 05:54:39 10° NNE 05:59:44 16° NE 06:04:49 10° E visible
28 Sep ? 20:55:16 10° SSE 21:03:46 61° E 21:12:20 10° NNE visible
28 Sep ? 22:53:11 10° SW 23:01:04 37° WNW 23:09:02 10° N visible
29 Sep ? 20:07:00 10° SE 20:14:38 36° E 20:22:18 10° NNE visible
29 Sep ? 22:02:26 10° SSW 22:11:00 60° WNW 22:19:42 10° N visible
30 Sep ? 00:05:14 10° W 00:10:05 16° NW 00:15:00 10° NNW visible
30 Sep ? 06:11:36 10° N 06:18:17 23° ENE 06:24:57 10° ESE visible
30 Sep ? 19:19:58 10° ESE 19:25:50 21° ENE 19:31:44 10° NNE visible
30 Sep ? 21:12:35 10° S 21:21:18 85° E 21:30:08 10° N visible
30 Sep ? 23:12:20 10° WSW 23:19:19 26° WNW 23:26:23 10° N visible
01 Oct ? 05:23:14 10° NNE 05:27:24 14° NE 05:31:34 10° ENE visible
01 Oct ? 20:23:38 10° SSE 20:31:57 52° E 20:40:20 10° NNE visible
01 Oct ? 22:20:50 10° SW 22:28:58 42° WNW 22:37:14 10° N visible
02 Oct ? 00:27:09 10° NW 00:28:55 11° NW 00:30:40 10° NNW visible
02 Oct ? 06:28:52 10° N 06:36:37 32° ENE 06:44:20 10° SE visible
02 Oct ? 19:35:41 10° SE 19:42:55 31° E 19:50:11 10° NNE visible
02 Oct ? 21:30:21 10° SSW 21:39:02 69° WNW 21:47:49 10° N visible
02 Oct ? 23:32:09 10° W 23:37:47 18° NW 23:43:29 10° N visible
03 Oct ? 05:39:57 10° N 05:46:03 20° NE 05:52:09 10° E visible
03 Oct ? 20:40:46 10° S 20:49:26 75° E 20:58:12 10° NNE visible
03 Oct ? 22:39:44 10° WSW 22:47:09 30° WNW 22:54:39 10° N visible
04 Oct ? 04:52:06 10° NNE 04:55:01 12° NE 04:57:57 10° ENE visible
04 Oct ? 19:52:05 10° SSE 20:00:10 45° E 20:08:19 10° NNE visible
04 Oct ? 21:48:34 10° SW 21:56:55 49° WNW 22:05:24 10° N visible
04 Oct ? 23:53:02 10° WNW 23:56:30 13° NW 23:59:59 10° NNW visible
